Hourly Weather Roundup
Issued by NWS Central Illinois

Home | Current Version | Previous Version | Text Only | Print | Product List | Glossary On
Versions: 1 2 3 4 5 6 7 8 9 10 11 12 13 14 15 16 17 18 19 20 21 22 23 24 25 26 27 28 29 30 31 32 33 34 35 36 37 38 39 40 41 42 43 44 45 46 47 48 49 50
000
NZUS43 KILX 280610
HWRILX

AREA WEATHER ROUNDUP
NATIONAL WEATHER SERVICE, LINCOLN IL
100 AM CDT THU MAY 28 2015


CITY           SKY/WX    TMP DP  RH WIND       PRES   REMARKS
BLOOMINGTON    PTCLDY    61  56  83 CALM      30.18R
6HR MIN TEMP:  60; 6HR MAX TEMP:  77;

CHAMPAIGN      CLEAR     61  53  75 E6        30.16R
6HR MIN TEMP:  61; 6HR MAX TEMP:  77;

DANVILLE       CLEAR     60  56  85 CALM      30.14R
6HR MIN TEMP:  59; 6HR MAX TEMP:  76;

DECATUR        CLEAR     61  57  87 NE6       30.16R
6HR MIN TEMP:  60; 6HR MAX TEMP:  76; 6HR PCP: TRACE;

EFFINGHAM      CLEAR     61  58  90 CALM      30.17R
FLORA          MOCLDY    65  61  86 CALM      30.15S
6HR MIN TEMP:  65; 6HR MAX TEMP:  79;

GALESBURG      PTCLDY    60  57  91 CALM      30.16R
JACKSONVILLE   CLEAR     63  59  89 CALM      30.16R
6HR MIN TEMP:  63; 6HR MAX TEMP:  78;

LACON          CLEAR     58  56  92 CALM      30.15R
6HR MIN TEMP:  57; 6HR MAX TEMP:  76;

LAWRENCEVILLE  MOCLDY    67  63  87 SW6       30.15R
6HR MIN TEMP:  67; 6HR MAX TEMP:  80;

LITCHFIELD     CLEAR     60  57  91 CALM      30.16R
$$


CITY           SKY/WX    TMP DP  RH WIND       PRES   REMARKS
LINCOLN        PTCLDY    63  57  81 CALM      30.15R
6HR MIN TEMP:  62; 6HR MAX TEMP:  78;

MACOMB         PTCLDY    61  59  92 CALM      30.18R
MATTOON        NOT AVBL
MT CARMEL AP   CLOUDY    70  63  78 CALM      30.14S
OLNEY-NOBLE AP MOCLDY    64  63  94 CALM      30.15R
PARIS          CLEAR     60  56  87 N5        30.16S
6HR MIN TEMP:  59; 6HR MAX TEMP:  80;

PEORIA         CLEAR     63  57  81 CALM      30.16R
6HR MIN TEMP:  63; 6HR MAX TEMP:  80;

PONTIAC        CLEAR     59  57  91 CALM      30.17R
RANTOUL        CLEAR     63  55  77 N3        30.16S
6HR MIN TEMP:  63; 6HR MAX TEMP:  79;

ROBINSON       MOCLDY    66  60  81 CALM      30.15S
6HR MIN TEMP:  66; 6HR MAX TEMP:  81;

SPRINGFIELD    PTCLDY    60  57  89 CALM      30.16R
6HR MIN TEMP:  59; 6HR MAX TEMP:  79;

TAYLORVILLE    CLEAR     61  59  94 CALM      30.16R
$$

...REGIONAL REPORTS...


CITY           SKY/WX    TMP DP  RH WIND       PRES   REMARKS
CHICAGO O`HARE CLEAR     60  54  80 S6        30.14R
KANKAKEE       CLEAR     58  54  85 CALM      30.17R
MOLINE         CLEAR     62  57  83 CALM      30.14R
MOUNT VERNON   MOCLDY    64  61  88 CALM      30.15R
PITTSFIELD     CLEAR     62  59  90 CALM      30.17R
QUINCY         CLEAR     66  56  70 SE6       30.15R
ROCKFORD       CLEAR     59  56  89 S3        30.15R
$$


CITY           SKY/WX    TMP DP  RH WIND       PRES   REMARKS
BURLINGTON     PTCLDY    63  59  87 CALM      30.15R
CEDAR RAPIDS   CLEAR     62  59  90 S3        30.12R
DES MOINES     MOCLDY    67  58  72 S7        30.11R
KIRKSVILLE     PTCLDY    59  57  93 SE3       30.16R
OTTUMWA        PTCLDY    63  57  81 SE6       30.13R
ST LOUIS       PTCLDY    69  57  65 CALM      30.15R
$$


CITY           SKY/WX    TMP DP  RH WIND       PRES   REMARKS
TERRE HAUTE    PTCLDY    62  59  90 CALM      30.15R
EVANSVILLE     MOCLDY    67  64  90 SW5       30.16R
INDIANAPOLIS   MOCLDY    66  59  78 NE7       30.14R
LAFAYETTE      CLEAR     57  55  93 CALM      30.16R
MADISON        CLEAR     66  58  75 S3        30.11S
MILWAUKEE      CLEAR     60  54  80 CALM      30.12R
$$





USA.gov is the U.S. government's official web portal to all federal, state and local government web resources and services.